Regional Weather Roundup
Issued by NWS

Home | Current Version | Previous Version | Text Only | Print | Product List | Glossary Off
Versions: 1 2 3 4 5 6 7 8 9 10 11 12 13 14 15 16 17 18 19 20 21 22 23 24 25 26 27 28 29 30 31 32 33 34 35 36 37 38 39 40 41 42 43 44 45 46 47 48 49 50

000
ASUS43 KTOP 181008
RWRKS

WEATHER ROUNDUP FOR KANSAS
NATIONAL WEATHER SERVICE GOODLAND KS
400 AM CST THU JAN 18 2018

NOTE:  "FAIR" INDICATES FEW OR NO CLOUDS BELOW 12,000 FEET WITH NO
SIGNIFICANT WEATHER AND/OR OBSTRUCTIONS TO VISIBILITY.

KSZ001>006-013>018-027>032-041>047-181100-
NORTHWEST KANSAS

CITY           SKY/WX    TMP DP  RH WIND       PRES   REMARKS
GOODLAND       CLEAR     22  10  60 W10       30.14F WCI  11
HAYS           CLOUDY    15   9  76 W7        30.20F
HILL CITY      CLOUDY    16   9  74 W7        30.17F
RUSSELL        CLOUDY    19  10  68 S14       30.18F WCI   6
$$

KSZ061>065-074>080-084>089-181100-
SOUTHWEST KANSAS

CITY           SKY/WX    TMP DP  RH WIND       PRES   REMARKS
DODGE CITY     CLOUDY    18   8  65 SW12      30.21F WCI   5
ELKHART        CLEAR     29  16  56 W14       30.20S WCI  19
GARDEN CITY    CLOUDY    13   5  70 W8        30.18F
GREAT BEND     CLOUDY    20   7  57 SW12      30.23S WCI   8
LIBERAL        CLEAR     16   8  71 SW10      30.23S WCI   4
PRATT          CLOUDY    19   2  46 S14       30.25F WCI   6
$$

KSZ066>073-081>083-090>101-181100-
SOUTHEAST KANSAS

CITY           SKY/WX    TMP DP  RH WIND       PRES   REMARKS
CHANUTE          N/A    N/A N/A N/A MISG      30.39F
COFFEYVILLE    CLOUDY    17   9  70 S10       30.44F WCI   5
HUTCHINSON     CLOUDY    19   6  57 S8        30.28F
MEDICINE LODGE   N/A     17   3  54 SE3       30.31F
NEWTON         CLOUDY    20   9  62 S16       30.29F WCI   6
PARSONS        CLOUDY    15   8  73 S6        30.42F
WICHITA INTL   CLOUDY    19   8  62 S13       30.32F WCI   6
WICHITA JABRA  CLOUDY    21   8  57 S17       30.31F WCI   7
WICHITA MCCONL CLOUDY    20   6  53 SW14      30.32F WCI   7
WINFIELD       CLOUDY    17   7  64 S8        30.38F
$$

KSZ007>012-019>026-033>040-048>060-102>105-181100-
NORTHEAST KANSAS

CITY           SKY/WX    TMP DP  RH WIND       PRES   REMARKS
CONCORDIA      CLOUDY    20   8  60 SW6       30.21F
EMPORIA        CLEAR     15   7  70 S6        30.31F
LAWRENCE       CLOUDY    20   8  60 SW6       30.32F
MANHATTAN      CLOUDY    19   8  62 SW9       30.28F
MARYSVILLE     CLOUDY    18   9  68 S9        30.23F
OLATHE IND     CLOUDY    19   8  62 S18       30.32F WCI   4
OLATHE EXE     CLOUDY    16   7  67 S7        30.32F
SALINA         CLEAR     21   9  59 S7        30.27S
TOPEKA BILLARD CLOUDY    19   9  65 SW5       30.31F
TOPEKA FORBES  CLOUDY    19   9  65 S12       30.29F WCI   7
$$



USA.gov is the U.S. government's official web portal to all federal, state and local government web resources and services.